Wind_Speed
21 22 22 22 23 23 22 23 25 25 24 22 21 22 23 21 23 22 22 22 22 23 22 23 24 29 31 33 34 35 36 33 35 38 33 35 36 34 31 29 31 30 29 30 28
23 22 22 22 22 23 24 23 24 25 25 27 28 25 24 26 26 27 27 28 26 25 25 24 23 27 29 31 35 39 39 34 35 38 41 42 40 39 35 30 31 26 27 32 30
23 23 23 23 25 24 24 24 25 25 26 27 28 29 29 28 30 29 30 30 32 31 32 31 30 29 32 32 35 36 33 35 37 38 38 43 44 44 39 34 26 26 31 33 30
25 25 24 23 24 25 24 24 24 26 27 28 29 29 29 30 33 32 32 35 36 35 35 37 38 36 33 36 37 38 36 35 36 42 42 44 46 49 45 35 31 34 34 31 31
27 26 27 29 29 27 27 26 26 26 28 30 31 31 31 31 33 35 35 36 37 39 38 37 38 39 39 38 39 42 41 37 37 42 44 44 47 49 48 41 37 39 36 31 30
30 31 33 29 29 28 29 28 29 30 31 32 34 36 37 36 36 38 37 38 39 40 41 42 43 44 45 45 43 44 44 40 40 44 50 48 47 49 48 45 41 41 40 39 42
32 32 28 27 27 28 30 30 31 32 33 34 35 37 40 41 42 41 41 41 42 42 42 43 46 47 48 48 49 48 48 46 44 46 52 53 50 52 49 50 45 40 40 45 46
28 31 29 29 28 29 30 32 33 34 35 36 36 38 40 43 46 46 46 46 46 46 46 47 47 49 52 54 52 52 51 52 51 50 54 59 48 51 53 52 54 49 41 46 47
26 28 29 30 31 31 32 35 36 38 39 40 41 43 43 45 46 47 47 48 49 48 49 50 50 51 53 55 57 56 54 55 55 54 56 57 55 53 55 53 54 54 51 46 48
29 31 34 35 35 35 37 37 39 41 42 42 44 45 47 48 49 50 49 50 50 52 52 52 53 54 56 59 60 60 60 59 58 60 60 59 58 56 59 59 56 53 56 52 49
31 33 35 37 37 38 39 40 42 42 43 43 42 43 42 46 50 49 50 52 53 54 55 56 56 58 61 62 63 64 64 62 60 65 66 62 64 64 62 64 59 55 55 57 51
30 33 36 36 36 38 40 41 44 45 41 40 40 43 46 48 51 51 52 52 53 56 58 59 60 60 62 62 62 64 64 63 64 65 68 67 67 67 68 66 62 57 53 52 53
32 33 35 38 37 39 42 41 40 39 39 41 42 45 48 49 48 49 50 50 52 53 55 56 58 61 61 61 61 62 65 66 67 68 70 67 67 61 66 67 64 58 50 50 54
30 33 34 35 37 37 40 41 41 40 41 43 45 43 45 46 47 48 49 50 51 51 53 53 52 56 61 63 59 63 62 64 66 65 73 65 68 66 58 62 69 61 59 55 60
31 31 34 36 38 37 39 40 43 44 42 41 40 44 45 45 47 49 49 48 47 47 48 39 44 47 50 49 45 54 45 52 63 62 53 64 68 68 61 56 63 62 59 58 55
30 31 34 39 39 39 39 43 43 42 44 41 41 42 44 46 47 47 45 47 43 39 37 35 25 27 25 24 24 29 40 35 37 43 37 38 76 73 60 52 58 61 61 55 50
31 32 36 38 38 38 41 43 41 41 41 41 40 42 45 44 43 44 40 36 32 28 22 19 19 25 21 23 27 26 46 43 34 34 47 37 58 78 53 54 60 63 66 65 60
29 33 37 39 38 38 42 42 42 41 40 40 39 38 40 38 38 36 33 24 18 17 9 10 12 24 24 23 24 18 42 35 30 39 37 27 46 81 55 43 63 60 61 57 60
30 35 37 37 38 41 42 42 41 40 39 35 32 32 31 36 38 35 27 17 12 11 14 20 19 20 23 21 7 20 27 35 43 43 34 26 39 57 48 40 58 63 62 59 50
30 34 36 38 39 41 42 42 41 38 36 29 27 27 28 31 33 34 27 16 13 13 14 12 21 14 19 16 7 11 15 20 29 41 38 32 36 36 28 37 51 53 55 58 48
31 34 37 38 38 41 41 39 38 35 30 23 21 24 28 31 31 31 27 17 14 15 15 14 19 13 23 20 14 2 19 26 24 26 29 30 32 27 27 36 38 49 46 50 51
30 33 35 36 39 40 39 38 38 32 23 17 21 27 29 31 29 28 27 18 12 11 12 8 14 8 14 28 12 2 10 11 24 27 34 33 35 24 27 33 35 34 38 42 49
28 32 34 34 36 38 38 38 35 26 17 16 21 25 28 30 30 27 26 17 10 10 14 7 2 3 13 23 28 19 13 9 18 19 17 19 17 14 26 28 33 36 30 33 30
28 32 33 32 36 39 38 37 31 21 14 17 22 25 24 28 31 29 25 15 11 9 15 8 4 6 7 10 10 16 22 8 14 23 16 11 6 9 24 26 24 28 29 33 38
28 30 31 32 38 38 37 35 27 14 14 17 20 22 23 25 28 26 22 15 10 10 20 9 7 5 8 9 13 17 16 20 10 15 19 17 6 13 26 28 23 27 32 31 29
29 30 29 32 36 37 36 32 23 14 14 16 18 20 19 23 30 26 21 14 10 12 17 15 14 7 8 12 9 11 7 2 13 11 13 8 7 10 23 37 32 37 37 31 36
29 28 26 31 36 35 34 31 20 15 14 14 15 16 20 24 26 29 21 16 9 13 15 17 9 16 8 9 8 13 11 14 16 15 18 18 16 15 17 22 32 41 37 35 35
Wind_Direction
288 292 294 296 298 297 294 295 292 288 282 276 269 268 269 266 266 264 263 270 272 267 261 254 254 255 254 250 249 246 245 244 240 231 232 239 241 242 241 242 249 249 251 249 247
289 289 291 293 294 297 293 291 291 291 287 285 285 279 267 264 267 264 263 262 264 265 265 266 267 263 261 258 251 249 251 249 244 241 242 243 245 243 240 238 241 248 253 244 243
293 293 293 295 294 295 296 292 291 288 288 287 285 282 281 279 267 265 266 264 264 263 262 265 266 266 267 264 262 253 256 253 243 242 244 241 240 243 245 241 239 235 237 238 243
301 298 298 302 302 295 292 291 290 290 287 287 286 286 283 279 278 276 269 268 265 263 266 260 259 267 266 267 264 263 258 251 245 245 247 248 243 240 242 239 228 231 232 235 249
305 301 303 308 304 298 293 291 290 287 287 287 288 287 286 284 281 279 277 273 271 267 265 261 260 260 260 264 267 267 263 256 248 247 247 245 246 246 240 236 228 230 228 230 233
302 304 305 308 307 298 297 290 288 288 287 285 287 287 287 284 281 279 278 276 274 273 269 265 263 261 262 264 264 266 265 261 251 243 248 246 244 246 242 232 228 231 227 228 236
303 305 312 314 312 306 299 291 291 289 287 286 286 286 285 286 286 283 282 280 278 274 271 269 265 264 263 263 264 261 261 261 257 247 247 248 246 245 243 236 230 231 227 230 235
313 312 314 314 312 309 304 298 291 290 289 287 287 287 287 282 281 282 282 282 280 278 275 271 267 264 264 263 261 262 262 261 258 251 246 246 251 246 244 242 234 231 229 227 235
312 312 311 309 307 304 303 302 299 296 294 291 287 287 285 283 284 281 280 282 281 277 276 274 270 268 265 263 262 260 259 259 258 252 245 247 254 244 245 240 240 232 230 229 229
316 317 316 313 311 307 306 306 304 300 297 296 293 289 284 284 281 280 279 279 279 278 277 275 272 269 267 264 264 261 260 258 257 253 245 245 252 246 237 240 237 240 232 231 230
320 316 313 308 305 304 304 305 304 301 300 299 296 291 288 287 285 281 278 280 280 278 278 277 273 271 268 264 262 262 261 260 255 251 249 246 248 246 237 238 236 236 242 234 227
315 312 310 308 309 308 308 305 304 303 304 300 296 293 291 290 289 288 285 282 280 279 278 276 274 268 264 263 261 258 258 257 255 248 247 246 247 246 239 234 236 232 240 237 231
315 310 309 310 310 311 312 313 309 308 308 302 299 297 294 291 293 292 290 287 285 282 279 276 273 270 267 265 262 260 259 256 254 246 240 244 245 240 241 234 231 230 226 231 231
311 312 314 311 312 313 317 317 315 314 310 305 305 301 301 299 298 298 297 294 292 289 285 282 278 275 273 270 266 262 258 251 245 244 239 234 238 230 234 235 232 228 227 232 232
315 313 314 312 316 320 319 320 319 317 311 309 307 306 304 305 306 306 302 299 297 294 289 284 275 272 274 278 271 264 241 240 239 240 246 226 224 225 232 232 227 226 226 229 223
314 312 315 317 317 316 319 320 319 314 310 308 308 310 312 311 310 312 313 309 306 299 293 289 278 288 280 264 258 247 210 221 225 222 233 242 226 219 226 232 230 225 224 217 225
313 312 315 316 320 320 319 317 314 311 311 311 313 316 314 319 322 324 326 318 312 303 293 278 276 289 268 246 258 238 204 230 230 237 231 248 240 215 220 225 232 228 222 221 229
308 313 314 316 319 321 320 320 315 313 314 315 319 320 324 329 335 338 333 322 314 311 305 255 262 290 262 243 235 236 213 236 240 238 238 236 251 221 229 238 231 228 220 226 228
305 310 312 317 320 320 321 319 315 314 317 320 321 326 338 344 344 344 333 315 289 292 299 289 289 293 252 199 197 196 227 233 243 240 253 251 240 228 234 240 221 225 226 222 215
306 309 313 318 322 320 321 319 315 318 320 322 329 334 343 345 341 340 331 309 285 261 298 313 292 289 272 249 267 259 230 226 230 245 248 241 241 241 230 216 211 216 221 224 227
303 310 317 320 321 320 319 316 317 320 320 322 336 338 339 343 336 337 330 313 284 254 275 301 315 273 253 243 281 167 189 209 228 240 240 231 230 265 225 206 215 214 212 217 220
304 312 320 319 321 321 319 318 319 321 322 326 335 334 335 338 340 332 336 318 296 263 229 323 347 301 249 246 279 172 107 158 201 214 236 221 241 254 203 205 214 212 208 215 223
303 315 316 316 322 324 320 319 320 321 319 327 332 334 336 337 339 335 335 314 296 261 211 268 320 66 240 254 264 255 271 354 180 205 186 221 239 215 200 200 207 203 205 205 213
304 311 310 313 319 323 320 319 319 317 315 324 328 333 339 338 336 337 335 310 296 246 202 187 258 334 260 250 269 271 277 271 201 212 184 184 7 177 192 191 187 200 210 205 203
300 306 308 311 316 316 317 318 316 306 311 320 326 333 339 342 340 340 337 317 303 250 221 218 215 161 185 249 251 263 276 266 236 219 229 250 258 142 172 187 197 206 205 206 210
293 301 307 312 316 316 316 318 311 295 305 318 327 335 343 347 354 351 344 322 300 247 229 229 208 132 125 178 205 227 245 188 153 143 160 138 187 139 142 149 158 179 190 183 195
291 295 306 313 315 314 317 317 306 294 303 317 327 333 335 342 345 351 345 335 288 230 231 219 213 164 153 169 206 207 181 151 180 147 162 160 145 127 145 153 157 166 166 167 171
Height
5794 5794 5792 5791 5791 5790 5789 5789 5790 5790 5790 5790 5790 5790 5790 5789 5789 5790 5790 5790 5790 5791 5791 5792 5794 5795 5796 5797 5799 5799 5799 5803 5808 5810 5814 5814 5818 5823 5828 5832 5835 5839 5842 5844 5846
5791 5790 5789 5787 5786 5785 5785 5785 5785 5785 5785 5785 5784 5784 5785 5785 5784 5784 5785 5784 5786 5786 5787 5787 5788 5789 5789 5791 5792 5793 5794 5799 5805 5806 5809 5810 5813 5816 5820 5824 5830 5835 5837 5838 5840
5788 5786 5785 5783 5783 5781 5780 5779 5779 5779 5779 5779 5779 5778 5778 5778 5778 5779 5778 5778 5779 5780 5780 5780 5780 5782 5783 5785 5786 5786 5787 5793 5798 5800 5802 5804 5807 5808 5812 5817 5828 5831 5828 5832 5836
5785 5783 5781 5779 5778 5776 5774 5774 5774 5773 5773 5774 5773 5772 5772 5773 5771 5770 5772 5772 5772 5772 5772 5772 5773 5773 5776 5776 5778 5777 5780 5785 5791 5793 5794 5797 5799 5800 5805 5813 5819 5821 5823 5827 5831
5781 5780 5778 5776 5774 5772 5770 5768 5767 5767 5766 5766 5765 5765 5765 5765 5763 5763 5763 5764 5764 5764 5765 5764 5764 5764 5765 5768 5769 5767 5771 5776 5783 5783 5785 5788 5791 5793 5797 5806 5809 5812 5817 5822 5824
5775 5774 5773 5771 5769 5768 5766 5763 5761 5761 5759 5759 5758 5756 5756 5756 5756 5754 5753 5753 5754 5755 5754 5755 5755 5755 5756 5757 5758 5758 5761 5766 5770 5773 5774 5778 5782 5782 5791 5796 5801 5805 5810 5814 5818
5771 5770 5768 5765 5764 5763 5761 5759 5757 5756 5753 5751 5749 5748 5746 5745 5744 5743 5743 5743 5743 5743 5742 5742 5743 5743 5744 5746 5747 5749 5751 5753 5757 5760 5763 5766 5770 5773 5784 5789 5794 5799 5802 5805 5811
5767 5765 5762 5760 5757 5756 5754 5753 5751 5749 5747 5745 5742 5740 5737 5734 5732 5731 5731 5732 5731 5730 5731 5729 5730 5731 5732 5734 5735 5735 5739 5741 5745 5750 5753 5753 5760 5765 5771 5778 5785 5791 5793 5797 5803
5762 5760 5757 5755 5752 5750 5747 5745 5743 5740 5738 5736 5732 5730 5726 5724 5722 5720 5719 5718 5716 5717 5716 5715 5715 5716 5718 5719 5720 5723 5728 5727 5731 5735 5738 5741 5747 5759 5760 5767 5774 5780 5786 5789 5794
5757 5755 5753 5750 5747 5744 5740 5737 5733 5730 5727 5724 5722 5720 5715 5711 5708 5708 5706 5704 5703 5701 5701 5701 5701 5701 5702 5702 5705 5708 5712 5714 5717 5718 5722 5728 5733 5740 5748 5751 5762 5768 5774 5782 5786
5751 5749 5747 5744 5740 5737 5733 5730 5728 5722 5717 5713 5710 5707 5703 5699 5694 5694 5692 5690 5688 5686 5685 5683 5686 5686 5685 5685 5687 5690 5694 5699 5701 5699 5703 5713 5717 5722 5733 5737 5747 5755 5761 5769 5774
5746 5743 5741 5737 5734 5730 5725 5720 5717 5714 5707 5703 5700 5697 5692 5688 5683 5679 5677 5675 5673 5670 5668 5667 5665 5665 5666 5667 5668 5671 5676 5683 5683 5683 5684 5694 5700 5706 5714 5727 5734 5744 5751 5759 5764
5739 5737 5734 5730 5726 5723 5718 5714 5708 5704 5699 5693 5690 5686 5681 5677 5670 5666 5663 5659 5656 5654 5652 5650 5646 5646 5647 5648 5648 5651 5657 5661 5665 5663 5671 5675 5680 5690 5700 5715 5721 5731 5740 5746 5754
5732 5729 5727 5723 5720 5714 5712 5706 5700 5696 5690 5686 5679 5673 5670 5665 5659 5653 5648 5645 5640 5637 5634 5631 5627 5625 5625 5628 5623 5631 5636 5638 5643 5645 5653 5661 5663 5671 5684 5697 5706 5719 5728 5737 5746
5726 5723 5720 5716 5713 5708 5705 5699 5694 5688 5682 5677 5670 5665 5658 5653 5646 5639 5633 5629 5624 5620 5616 5614 5609 5607 5606 5605 5602 5614 5616 5621 5626 5633 5640 5648 5651 5663 5670 5679 5694 5707 5718 5726 5735
5720 5717 5713 5710 5706 5702 5697 5692 5687 5682 5673 5668 5661 5655 5648 5640 5633 5627 5619 5612 5608 5604 5600 5597 5597 5596 5597 5595 5594 5598 5605 5613 5620 5627 5627 5636 5640 5647 5659 5673 5682 5693 5704 5711 5722
5714 5711 5707 5703 5700 5696 5690 5685 5680 5673 5668 5661 5653 5644 5637 5631 5624 5614 5609 5601 5597 5594 5593 5592 5593 5592 5590 5591 5591 5591 5599 5608 5613 5616 5618 5626 5623 5637 5655 5662 5670 5681 5693 5703 5712
5708 5705 5701 5698 5694 5689 5684 5678 5671 5665 5657 5651 5643 5635 5630 5623 5617 5609 5601 5597 5593 5590 5589 5589 5592 5588 5586 5588 5588 5590 5597 5602 5606 5608 5617 5620 5615 5630 5645 5652 5660 5668 5682 5693 5700
5702 5699 5696 5692 5687 5682 5677 5670 5664 5657 5650 5644 5638 5632 5626 5616 5609 5604 5599 5595 5593 5591 5589 5585 5587 5585 5583 5586 5591 5596 5598 5603 5604 5606 5611 5613 5615 5625 5639 5641 5648 5659 5674 5683 5691
5697 5694 5690 5685 5681 5676 5670 5663 5656 5649 5643 5637 5632 5628 5622 5616 5609 5602 5596 5594 5591 5589 5586 5584 5579 5581 5582 5583 5587 5590 5593 5597 5600 5602 5608 5612 5613 5620 5622 5629 5641 5654 5664 5674 5683
5692 5688 5684 5679 5676 5670 5663 5657 5650 5643 5638 5634 5629 5624 5619 5614 5606 5600 5594 5590 5588 5588 5585 5582 5581 5582 5580 5581 5582 5585 5588 5591 5596 5600 5608 5609 5613 5612 5614 5624 5635 5646 5656 5667 5677
5687 5683 5679 5675 5671 5663 5656 5650 5645 5638 5634 5630 5625 5621 5615 5610 5605 5597 5592 5587 5586 5585 5586 5582 5579 5578 5581 5581 5581 5584 5585 5587 5591 5598 5605 5607 5611 5605 5610 5619 5629 5640 5649 5659 5669
5680 5677 5674 5671 5666 5658 5651 5645 5640 5634 5630 5627 5623 5618 5612 5607 5603 5596 5590 5585 5583 5583 5584 5582 5581 5579 5579 5582 5583 5584 5584 5587 5589 5594 5599 5604 5610 5602 5608 5616 5624 5634 5644 5652 5661
5675 5672 5669 5665 5659 5653 5645 5641 5635 5630 5627 5624 5620 5616 5611 5605 5597 5593 5588 5584 5581 5582 5582 5580 5580 5579 5579 5580 5583 5585 5586 5585 5589 5595 5599 5606 5605 5603 5608 5615 5622 5631 5639 5648 5658
5670 5668 5664 5660 5654 5648 5641 5636 5631 5628 5625 5622 5618 5614 5609 5604 5598 5591 5586 5582 5580 5580 5581 5581 5582 5581 5581 5580 5582 5585 5586 5587 5591 5594 5600 5603 5605 5604 5608 5612 5619 5626 5635 5642 5650
5665 5662 5659 5655 5650 5643 5636 5632 5627 5624 5622 5619 5616 5611 5607 5603 5597 5590 5586 5582 5579 5580 5581 5581 5583 5582 5584 5583 5583 5584 5586 5590 5593 5595 5598 5602 5605 5605 5607 5610 5615 5621 5629 5637 5644
5658 5657 5654 5651 5645 5639 5632 5628 5624 5621 5619 5617 5614 5610 5606 5601 5596 5591 5586 5582 5580 5581 5581 5581 5582 5584 5584 5584 5584 5585 5586 5590 5592 5596 5598 5602 5605 5605 5608 5611 5615 5621 5627 5633 5639